Syracuse, NY

11:58 AM EST on November 21, 2019 (GMT -0500)
Syracuse Hancock International

Weather History for KSYR - September, 2019

Change the Weather History Date:

Monday, September 9, 2019

  Actual Average Record
Temperature  
Mean Temperature 60 °F 65 °F  
Max Temperature 70 °F 75 °F 94 °F (1941)
Min Temperature 51 °F 54 °F 37 °F (1938)
Degree Days  
Heating Degree Days 4 3  
Month to date heating degree days 15 19  
Since 1 July heating degree days 20 45  
Cooling Degree Days 0 2  
Month to date cooling degree days 9 27  
Year to date cooling degree days 577 540  
Growing Degree Days 10 (Base 50)    
Moisture  
Dew Point 50 °F    
Average Humidity 74    
Maximum Humidity 93    
Minimum Humidity 47    
Precipitation  
Precipitation 0.00 in 0.12 in 2.42 in (1929)
Month to date precipitation 1.70 1.05  
Year to date precipitation 32.34 25.64  
Snow  
Snow 0.00 in 0.00 in 0.00 in (2002)
Month to date snowfall 0.0 0.0  
Since 1 July snowfall T 0.0  
Since 1 September snowfall 0.0 0.0  
Snow Depth 0.00 in    
Sea Level Pressure  
Sea Level Pressure 30.27 in    
Wind  
Wind Speed 2 mph ()    
Max Wind Speed 13 mph    
Max Gust Speed 16 mph    
Visibility 10.0 miles    
Events      
T = Trace of Precipitation, MM = Missing Value Source: Averaged Metar Reports

Daily Weather History Graph

Daily Weather History Graph

Search for Another Location

Airport or City:

Astronomy

Sep. 09, 2019 Rise Set
Actual Time 6:37 AM EDT 7:25 PM EDT
Civil Twilight 6:08 AM EDT 7:54 PM EDT
Nautical Twilight 5:34 AM EDT 8:28 PM EDT
Astronomical Twilight 4:58 AM EDT 9:04 PM EDT
Moon 5:26 PM EDT (9/9) 1:58 AM EDT (9/9)
Length of Visible Light 13h 45m
Length of Day
12h 48m
Waxing Gibbous, 83% of the Moon is Illuminated
Sep 9
Waxing Gibbous
Sep 14
Full
Sep 21
Last Quarter
Sep 28
New
Oct 5
First Quarter

Hourly Weather History & Observations

Time (EDT) Temp. Dew Point Humidity Pressure Visibility Wind Dir Wind Speed Gust Speed Precip Events Conditions
12:54 AM 55.0 °F 51.1 °F 86% 30.22 in 10.0 mi Calm Calm - N/A   Mostly Cloudy
1:54 AM 54.0 °F 51.1 °F 90% 30.23 in 10.0 mi Calm Calm - N/A   Mostly Cloudy
1:58 AM 54.0 °F 51.1 °F 90% 30.24 in 10.0 mi Calm Calm - N/A   Mostly Cloudy
2:54 AM 55.0 °F 51.1 °F 86% 30.22 in 10.0 mi East 3.5 mph - N/A   Overcast
2:59 AM 54.0 °F 50.0 °F 86% 30.23 in 10.0 mi East 3.5 mph - N/A   Overcast
3:54 AM 55.0 °F 51.1 °F 86% 30.23 in 10.0 mi Calm Calm - N/A   Overcast
4:08 AM 55.0 °F 51.1 °F 86% 30.24 in 10.0 mi Calm Calm - N/A   Overcast
4:34 AM 54.0 °F 51.1 °F 90% 30.24 in 10.0 mi East 6.9 mph - N/A   Overcast
4:54 AM 54.0 °F 50.0 °F 86% 30.23 in 10.0 mi ESE 4.6 mph - N/A   Overcast
5:54 AM 53.1 °F 48.9 °F 86% 30.25 in 10.0 mi Calm Calm - N/A   Scattered Clouds
6:54 AM 52.0 °F 48.9 °F 89% 30.27 in 10.0 mi Calm Calm - N/A   Scattered Clouds
7:54 AM 53.1 °F 48.9 °F 86% 30.28 in 10.0 mi East 4.6 mph - N/A   Mostly Cloudy
8:54 AM 55.0 °F 51.1 °F 86% 30.31 in 10.0 mi Calm Calm - N/A   Mostly Cloudy
9:54 AM 61.0 °F 52.0 °F 72% 30.32 in 10.0 mi Calm Calm - N/A   Mostly Cloudy
10:54 AM 64.0 °F 52.0 °F 65% 30.32 in 10.0 mi North 6.9 mph - N/A   Scattered Clouds
11:54 AM 66.0 °F 50.0 °F 56% 30.29 in 10.0 mi Calm Calm - N/A   Mostly Cloudy
12:54 PM 66.9 °F 50.0 °F 54% 30.29 in 10.0 mi Variable 3.5 mph - N/A   Mostly Cloudy
1:54 PM 66.9 °F 51.1 °F 57% 30.28 in 10.0 mi NNW 9.2 mph - N/A   Mostly Cloudy
2:54 PM 68.0 °F 50.0 °F 52% 30.28 in 10.0 mi WNW 5.8 mph - N/A   Mostly Cloudy
3:54 PM 69.1 °F 48.9 °F 49% 30.27 in 10.0 mi Variable 4.6 mph - N/A   Mostly Cloudy
4:54 PM 66.9 °F 50.0 °F 54% 30.26 in 10.0 mi WNW 10.4 mph - N/A   Mostly Cloudy
5:54 PM 66.9 °F 48.9 °F 52% 30.27 in 10.0 mi NW 9.2 mph - N/A   Mostly Cloudy
6:54 PM 63.0 °F 48.0 °F 58% 30.29 in 10.0 mi North 10.4 mph - N/A   Scattered Clouds
7:54 PM 59.0 °F 46.9 °F 64% 30.30 in 10.0 mi North 3.5 mph - N/A   Partly Cloudy
8:54 PM 55.9 °F 48.9 °F 77% 30.32 in 10.0 mi Calm Calm - N/A   Partly Cloudy
9:54 PM 55.0 °F 48.0 °F 77% 30.32 in 10.0 mi Calm Calm - N/A   Partly Cloudy
10:54 PM 53.1 °F 48.0 °F 83% 30.31 in 10.0 mi Calm Calm - N/A   Partly Cloudy
11:54 PM 54.0 °F 48.9 °F 83% 30.31 in 10.0 mi Calm Calm - N/A   Partly Cloudy